Regional Weather Roundup
Issued by NWS

Home | Current Version | Previous Version | Graphics & Text | Print | Product List | Glossary On
Versions: 1 2 3 4 5 6 7 8 9 10 11 12 13 14 15 16 17 18 19 20 21 22 23 24 25 26 27 28
000
ASUS45 KPSR 221310
RWRAZ

ARIZONA HOURLY REGIONAL WEATHER ROUNDUP
NATIONAL WEATHER SERVICE PHOENIX AZ
600 AM MST TUE AUG 22 2017

NOTE: FAIR INDICATES FEW OR NO CLOUDS BELOW 12,000 FEET WITH NO
SIGNIFICANT WEATHER AND/OR OBSTRUCTIONS TO VISIBILITY.

AZZ001>003-036-221400-
NORTHWEST ARIZONA

CITY           SKY/WX    TMP DP  RH WIND       PRES   REMARKS
BULLHEAD CITY  CLEAR     81  54  39 CALM      29.95R
KINGMAN        CLEAR     59  53  80 N3        30.14R
$$

AZZ004>008-015-016-018-221400-
NORTH CENTRAL ARIZONA

CITY           SKY/WX    TMP DP  RH WIND       PRES   REMARKS
GRAND CANYON   CLOUDY    58  52  80 NE13      30.38R
WILLIAMS       MOCLDY    54  50  87 S10       30.36R
PRESCOTT       CLEAR     56  51  84 S7        30.25R
FLAGSTAFF      PTCLDY    51  50  96 CALM      30.38R
PAYSON           N/A     63  52  67 CALM      30.26R
PAGE           LGT RAIN  74  52  46 N12       30.21R
$$

AZZ009>014-017-221400-
NORTHEAST ARIZONA

CITY           SKY/WX    TMP DP  RH WIND       PRES   REMARKS
WINSLOW        PTCLDY    61  50  67 W5        30.24R
SAINT JOHNS    CLEAR     59  50  72 S3        30.29R
WINDOW ROCK    CLEAR     50  46  86 CALM      30.37R
SHOW LOW       CLEAR     55  50  82 S5        30.34R
$$

AZZ540-542>544-546-548-221400-
GREATER PHOENIX AREA

CITY           SKY/WX    TMP DP  RH WIND       PRES   REMARKS
PHOENIX        MOCLDY    83  56  39 SW3       29.92R
BUCKEYE        CLEAR     81  52  36 N9        29.93R
GLENDALE       PTCLDY    82  55  39 CALM      29.94
DEER VALLEY    CLEAR     81  54  39 CALM      29.94R
SCOTTSDALE     CLEAR     80  57  45 CALM      29.96R
MESA-FALCON    PTCLDY    84  55  37 E6        29.95
MESA-GATEWAY   PTCLDY    75  54  46 E5        29.96R
CHANDLER       PTCLDY    82  61  47 E3        29.94
$$

AZZ539-553-221400-
SOUTHWEST MARICOPA COUNTY AND PINAL COUNTY

CITY           SKY/WX    TMP DP  RH WIND       PRES   REMARKS
CASA GRANDE    CLEAR     76  60  57 NW3       29.96R
GILA BEND      FAIR      78  49  35 SW7       29.91R
$$

AZZ503-504-507>509-221400-
SOUTHEAST ARIZONA

CITY           SKY/WX    TMP DP  RH WIND       PRES   REMARKS
TUCSON         NOT AVBL
DAVIS-MONTHAN  PTCLDY    74  54  49 S3        30.05R
RYAN FIELD     CLEAR     73  54  49 CALM      30.05
NOGALES        CLEAR     67  61  81 SE3       30.15R
SIERRA VISTA   CLEAR     70  50  50 SW7       30.21R
DOUGLAS        CLEAR     63  59  87 NE5       30.16R
SAFFORD        PTCLDY    66  52  60 N6        30.08R
$$

AZZ532-221400-
SOUTHWEST ARIZONA

CITY           SKY/WX    TMP DP  RH WIND       PRES   REMARKS
YUMA           CLEAR     85  57  38 CALM      29.87R
$$

CAZ041-043-047-048-061-525>527-560>570-221400-
SOUTHERN CALIFORNIA

CITY           SKY/WX    TMP DP  RH WIND       PRES   REMARKS
DOWNTOWN L.A.  CLEAR     66  62  87 CALM      29.98R
L.A. AIRPORT   PTCLDY    66  64  93 W7        29.99R
SAN DIEGO      CLOUDY    70  63  78 NW6       30.00R
BURBANK        CLEAR     62  55  77 CALM      29.99R
ONTARIO        CLEAR     62  58  86 CALM      29.99R
RIVERSIDE      CLEAR     63  59  87 SW3       30.00R
PALM SPRINGS   CLEAR     82  51  34 NW8       29.91R
EL CENTRO NAS  PTCLDY    74  49  41 W5        29.87R
IMPERIAL       CLEAR     75  56  51 W3        29.85R
BLYTHE         CLEAR     82  56  40 CALM      29.89R
NEEDLES        CLEAR     81  53  37 W3        29.95R
$$

NVZ020-UTZ003-221400-
SOUTHERN NEVADA-UTAH

CITY           SKY/WX    TMP DP  RH WIND       PRES   REMARKS
LAS VEGAS      PTCLDY    78  53  41 S3        30.06R
SALT LAKE CITY MOCLDY    73  49  42 S5        30.17R
$$

NMZ009-TXZ055-221400-
NEW MEXICO-WEST TEXAS

CITY           SKY/WX    TMP DP  RH WIND       PRES   REMARKS
ALBUQUERQUE    PTCLDY    64  54  69 N8        30.29R
EL PASO        PTCLDY    72  68  87 N5        30.16R
$$


........................KEY........................
SKY/WX - SKY CONDITION/WEATHER
TMP    - TEMPERATURE IN FAHRENHEIT
DP     - DEW POINT IN FAHRENHEIT
RH     - RELATIVE HUMIDITY IN PERCENT
WIND   - DIRECTION AND SPEED IN MILES PER HOUR (MPH)
VRB    - VARIABLE WIND DIRECTION
PRES   - MEAN SEA LEVEL PRESSURE IN INCHES OF MERCURY
         F - FALLING PRESSURE   R - RISING PRESSURE
         S - STEADY PRESSURE
VSB    - VISIBILITY IN MILES
HX     - HEAT INDEX IN FAHRENHEIT
WCI    - WIND CHILL INDEX IN FAHRENHEIT
TC     - TEMPERATURE IN CELSIUS WHICH IS ALSO KNOWN AS
         TEMPERATURE IN CENTIGRADE
AFB    - AIR FORCE BASE
         LUKE AFB IS LUKE AIR FORCE BASE
         DAVIS-MONTHAN IS DAVIS-MONTHAN AIR FORCE BASE
NAS    - NAVAL AIR STATION
         EL CENTRO NAS IS EL CENTRO NAVAL AIR STATION
N/A    - NOT AVAILABLE





USA.gov is the U.S. government's official web portal to all federal, state and local government web resources and services.